• In Deutschland
  • Länderverzeichnis
  • Für 7 Tage
  • Wassertemperatur
  • Satellitenkarten
  • Wetterkarte
  • Widgets
  • user-avatar
    Anmelden

    Stündliche Wetter Naschawar

    Heute, 26 Juni, Montag

    Zeit Temperatur Niederschläge Wind Luftdruck Luftfeuchtigkeit
    00:00 +38°C° 0,2 mm 3 m/S 722 mmHg 36%
    01:00 +37°C° 0,2 mm 2 m/S 722 mmHg 38%
    02:00 +36°C° 0,2 mm 2 m/S 722 mmHg 41%
    03:00 +36°C° 0,5 mm 2 m/S 722 mmHg 43%
    04:00 +35°C° 0,5 mm 2 m/S 722 mmHg 46%
    05:00 +35°C° 0 mm 2 m/S 722 mmHg 48%
    06:00 +36°C° 0,2 mm 2 m/S 723 mmHg 46%
    07:00 +36°C° 0,2 mm 2 m/S 723 mmHg 43%
    08:00 +37°C° 0,2 mm 2 m/S 723 mmHg 40%
    09:00 +39°C° 0,1 mm 2 m/S 723 mmHg 37%
    10:00 +40°C° 0,1 mm 2 m/S 723 mmHg 33%
    11:00 +40°C° 0 mm 2 m/S 724 mmHg 35%
    12:00 +41°C° 0 mm 2 m/S 723 mmHg 32%
    13:00 +42°C° 0 mm 2 m/S 723 mmHg 30%
    14:00 +43°C° 0 mm 2 m/S 722 mmHg 27%
    15:00 +43°C° 0 mm 2 m/S 722 mmHg 26%
    16:00 +43°C° 0 mm 2 m/S 722 mmHg 25%
    17:00 +42°C° 0 mm 2 m/S 722 mmHg 28%
    18:00 +41°C° 0 mm 2 m/S 722 mmHg 30%
    19:00 +40°C° 0 mm 2 m/S 722 mmHg 32%
    20:00 +40°C° 0 mm 2 m/S 722 mmHg 33%
    21:00 +39°C° 0 mm 2 m/S 722 mmHg 35%
    22:00 +39°C° 0 mm 2 m/S 722 mmHg 37%
    23:00 +37°C° 0 mm 1 m/S 722 mmHg 38%

    Morgen, 27 Juni, Dienstag

    Zeit Temperatur Niederschläge Wind Luftdruck Luftfeuchtigkeit
    00:00 +36°C° 0 mm 1 m/S 722 mmHg 40%
    01:00 +36°C° 0 mm 1 m/S 722 mmHg 41%
    02:00 +35°C° 0 mm 1 m/S 722 mmHg 43%
    03:00 +35°C° 0 mm 1 m/S 722 mmHg 44%
    04:00 +34°C° 0 mm 1 m/S 722 mmHg 45%
    05:00 +34°C° 0 mm 1 m/S 722 mmHg 46%
    06:00 +35°C° 0 mm 1 m/S 723 mmHg 42%
    07:00 +36°C° 0 mm 1 m/S 723 mmHg 38%
    08:00 +37°C° 0 mm 1 m/S 723 mmHg 34%
    09:00 +39°C° 0 mm 1 m/S 723 mmHg 30%
    10:00 +41°C° 0 mm 1 m/S 723 mmHg 26%
    11:00 +42°C° 0 mm 1 m/S 723 mmHg 23%
    12:00 +43°C° 0 mm 1 m/S 722 mmHg 21%
    13:00 +44°C° 0 mm 1 m/S 722 mmHg 20%
    14:00 +44°C° 0 mm 1 m/S 721 mmHg 19%
    15:00 +46°C° 0 mm 2 m/S 721 mmHg 19%
    16:00 +46°C° 0 mm 2 m/S 720 mmHg 19%
    17:00 +46°C° 0 mm 2 m/S 720 mmHg 18%
    18:00 +45°C° 0 mm 2 m/S 720 mmHg 20%
    19:00 +43°C° 0 mm 2 m/S 720 mmHg 22%
    20:00 +42°C° 0 mm 2 m/S 720 mmHg 24%
    21:00 +41°C° 0 mm 2 m/S 721 mmHg 24%
    22:00 +40°C° 0 mm 2 m/S 721 mmHg 25%
    23:00 +39°C° 0 mm 1 m/S 721 mmHg 26%

    übermorgen, 28 Juni, Mittwoch

    Zeit Temperatur Niederschläge Wind Luftdruck Luftfeuchtigkeit
    00:00 +37°C° 0,2 mm 1 m/S 721 mmHg 28%
    01:00 +38°C° 0,2 mm 2 m/S 721 mmHg 30%
    02:00 +37°C° 0,2 mm 2 m/S 721 mmHg 33%
    03:00 +35°C° 0,2 mm 1 m/S 721 mmHg 35%
    04:00 +34°C° 0,2 mm 1 m/S 721 mmHg 37%
    05:00 +34°C° 0,2 mm 1 m/S 721 mmHg 39%
    06:00 +35°C° 0,1 mm 1 m/S 722 mmHg 36%
    07:00 +36°C° 0,1 mm 1 m/S 722 mmHg 32%
    08:00 +37°C° 0,1 mm 1 m/S 722 mmHg 29%
    09:00 +39°C° 0 mm 1 m/S 722 mmHg 27%
    10:00 +40°C° 0 mm 1 m/S 722 mmHg 26%
    11:00 +41°C° 0 mm 1 m/S 722 mmHg 24%
    12:00 +42°C° 0 mm 1 m/S 722 mmHg 24%
    13:00 +42°C° 0 mm 2 m/S 722 mmHg 23%
    14:00 +43°C° 0 mm 2 m/S 721 mmHg 23%
    15:00 +43°C° 0 mm 2 m/S 721 mmHg 23%
    16:00 +45°C° 0 mm 2 m/S 721 mmHg 22%
    17:00 +45°C° 0 mm 2 m/S 720 mmHg 22%
    18:00 +43°C° 0 mm 2 m/S 720 mmHg 25%
    19:00 +42°C° 0 mm 1 m/S 721 mmHg 27%
    20:00 +40°C° 0 mm 1 m/S 721 mmHg 30%
    21:00 +40°C° 0,5 mm 1 m/S 721 mmHg 32%
    22:00 +39°C° 0,5 mm 2 m/S 722 mmHg 35%
    23:00 +38°C° 0,5 mm 2 m/S 722 mmHg 37%

    29 Juni, Donnerstag

    Zeit Temperatur Niederschläge Wind Luftdruck Luftfeuchtigkeit
    00:00 +37°C° 0,3 mm 2 m/S 722 mmHg 39%
    01:00 +37°C° 0,3 mm 2 m/S 722 mmHg 41%
    02:00 +36°C° 0,3 mm 2 m/S 722 mmHg 43%
    03:00 +36°C° 0,1 mm 2 m/S 722 mmHg 45%
    04:00 +35°C° 0,1 mm 2 m/S 722 mmHg 47%
    05:00 +34°C° 0,1 mm 2 m/S 722 mmHg 49%
    06:00 +35°C° 0 mm 2 m/S 722 mmHg 47%
    07:00 +36°C° 0 mm 2 m/S 722 mmHg 44%
    08:00 +36°C° 0 mm 2 m/S 722 mmHg 42%
    09:00 +37°C° 0 mm 2 m/S 722 mmHg 39%
    10:00 +38°C° 0 mm 2 m/S 722 mmHg 37%
    11:00 +39°C° 0 mm 2 m/S 722 mmHg 35%
    12:00 +40°C° 0 mm 2 m/S 722 mmHg 33%
    13:00 +41°C° 0 mm 2 m/S 722 mmHg 31%
    14:00 +42°C° 0 mm 2 m/S 721 mmHg 29%
    15:00 +42°C° 0 mm 2 m/S 721 mmHg 28%
    16:00 +42°C° 0 mm 2 m/S 720 mmHg 27%
    17:00 +43°C° 0 mm 2 m/S 720 mmHg 26%
    18:00 +42°C° 0 mm 2 m/S 720 mmHg 28%
    19:00 +41°C° 0 mm 2 m/S 720 mmHg 30%
    20:00 +40°C° 0 mm 2 m/S 720 mmHg 32%
    21:00 +39°C° 0,1 mm 2 m/S 720 mmHg 35%
    22:00 +38°C° 0,1 mm 2 m/S 721 mmHg 38%
    23:00 +37°C° 0,1 mm 2 m/S 721 mmHg 41%

    30 Juni, Freitag

    Zeit Temperatur Niederschläge Wind Luftdruck Luftfeuchtigkeit
    00:00 +37°C° 0,3 mm 2 m/S 721 mmHg 44%
    01:00 +36°C° 0,3 mm 2 m/S 721 mmHg 47%
    02:00 +35°C° 0,3 mm 2 m/S 721 mmHg 50%
    03:00 +34°C° 0,2 mm 2 m/S 721 mmHg 53%
    04:00 +34°C° 0,2 mm 2 m/S 721 mmHg 56%
    05:00 +32°C° 0,2 mm 2 m/S 720 mmHg 58%
    06:00 +34°C° 0 mm 2 m/S 720 mmHg 55%
    07:00 +33°C° 0 mm 1 m/S 721 mmHg 51%
    08:00 +34°C° 0 mm 1 m/S 721 mmHg 48%
    09:00 +36°C° 0 mm 1 m/S 720 mmHg 42%
    10:00 +37°C° 0 mm 1 m/S 720 mmHg 35%
    11:00 +39°C° 0 mm 1 m/S 720 mmHg 29%
    12:00 +40°C° 0 mm 1 m/S 720 mmHg 26%
    13:00 +42°C° 0 mm 1 m/S 719 mmHg 23%
    14:00 +43°C° 0 mm 2 m/S 719 mmHg 20%
    15:00 +43°C° 0 mm 2 m/S 718 mmHg 20%
    16:00 +43°C° 0 mm 2 m/S 718 mmHg 19%
    17:00 +43°C° 0 mm 2 m/S 718 mmHg 19%
    18:00 +42°C° 0 mm 2 m/S 718 mmHg 21%
    19:00 +41°C° 0 mm 2 m/S 718 mmHg 24%
    20:00 +40°C° 0 mm 2 m/S 718 mmHg 26%
    21:00 +39°C° 0 mm 2 m/S 719 mmHg 27%
    22:00 +39°C° 0 mm 2 m/S 719 mmHg 28%
    23:00 +38°C° 0 mm 2 m/S 719 mmHg 29%

    1 Juli, Samstag

    Zeit Temperatur Niederschläge Wind Luftdruck Luftfeuchtigkeit
    00:00 +36°C° 0 mm 1 m/S 719 mmHg 31%
    01:00 +36°C° 0 mm 1 m/S 719 mmHg 33%
    02:00 +35°C° 0 mm 1 m/S 719 mmHg 35%
    03:00 +34°C° 0 mm 1 m/S 719 mmHg 37%
    04:00 +34°C° 0 mm 1 m/S 719 mmHg 38%
    05:00 +33°C° 0 mm 1 m/S 719 mmHg 40%
    06:00 +34°C° 0 mm 1 m/S 719 mmHg 35%
    07:00 +35°C° 0 mm 1 m/S 720 mmHg 31%
    08:00 +37°C° 0 mm 1 m/S 720 mmHg 26%
    09:00 +39°C° 0 mm 2 m/S 720 mmHg 22%
    10:00 +40°C° 0 mm 2 m/S 720 mmHg 18%
    11:00 +42°C° 0 mm 2 m/S 719 mmHg 15%
    12:00 +43°C° 0 mm 2 m/S 719 mmHg 13%
    13:00 +45°C° 0 mm 2 m/S 718 mmHg 11%
    14:00 +45°C° 0 mm 1 m/S 718 mmHg 10%
    15:00 +46°C° 0 mm 2 m/S 718 mmHg 10%
    16:00 +46°C° 0 mm 2 m/S 717 mmHg 10%
    17:00 +46°C° 0 mm 2 m/S 717 mmHg 10%
    18:00 +45°C° 0 mm 2 m/S 717 mmHg 12%
    19:00 +42°C° 0 mm 2 m/S 718 mmHg 15%
    20:00 +40°C° 0 mm 2 m/S 718 mmHg 17%
    21:00 +40°C° 0 mm 2 m/S 718 mmHg 17%
    22:00 +39°C° 0 mm 1 m/S 719 mmHg 18%
    23:00 +37°C° 0 mm 1 m/S 719 mmHg 18%
    Mehr zeigen